Terminal Aerodrome Forecast
Issued by NWS Spokane, WA

Home | Current Version | Previous Version | Text Only | Print | Product List | Glossary On
Versions: 1 2 3 4 5 6 7 8 9 10 11 12 13 14 15 16 17 18 19 20 21 22 23 24 25 26 27 28 29
000
FTUS46 KOTX 221738
TAFLWS
TAF
KLWS 221738Z 2218/2318 29003KT P6SM SCT060 BKN200
     FM222200 33008KT P6SM VCTS SCT070CB BKN100
     FM230300 15006KT P6SM VCSH SCT070 BKN090
     FM230800 VRB04KT P6SM FEW080 BKN150
     FM231600 32005KT P6SM FEW060 SCT100=

USA.gov is the U.S. government's official web portal to all federal, state and local government web resources and services.